Back to catalog

SL-16 DEB

AliveLEO
NORAD 28354·DEBRIS·🇷🇺 Russia

Launched Jun 10, 2004 from Baikonur Cosmodrome

Loading…

Next Passes (next 24 hours)

TLE

FreshSource: Space-Track

Epoch: Sep 14, 2026, 13:32 UTC

1 28354U 04021C   26257.56412561  .00000149  00000-0  18673-3 0  9993
2 28354  70.9567 330.7945 0222505 229.6841 128.4631 13.69075213111507

Track SL-16 DEB in real time with AllMySat

Download on the App Store